Tracking 25710 objects as of 6-Jul-2022
HD Live streaming from Space Station
objects crossing your sky now

ONEWEB-0112

Track ONEWEB-0112 now!
10-day predictions
ONEWEB-0112 is classified as:


NORAD ID: 48051
Int'l Code: 2021-025K
Perigee: 1,215.3 km
Apogee: 1,218.5 km
Inclination: 87.9 °
Period: 109.6 minutes
Semi major axis: 7587 km
RCS: Unknown
Launch date: March 25, 2021
Source: United States (US)
Launch site: VOSTOCHNY COSMODROME (VOSTO)
aabbcc
Your satellite tracking list
Your tracking list is empty




NASA's NSSDC Master Catalog

Two Line Element Set (TLE):
1 48051U 21025K   22186.68597939  .00000232  00000-0  60042-3 0  9995
2 48051  87.9062 246.6798 0002066  98.8458 261.2905 13.13471102 64233
Source of the keplerian elements: AFSPC